UAE4451 EHAM-OMDB

Flight info

Callsign UAE4451
Flight time N/A
Altitude 35000
Route ARNEM L620 HMM DCT OMELO DCT MAVOR DCT KUFIK DCT TEKVI DCT FOGRE DCT TUVNU DCT SOKRU DCT ARGES DCT ARTAT/N0483F370 UP975 EZS UG8 OTKEP UM688 RATVO M688 SIDAD P975 SESRU M677 VUTEB
Aircraft B77W/H-SDE1E2E3FGHIJ2J3J4J5M1RWXY/LB1D1

Departure

Time N/A
Airport Amsterdam Airport Schiphol (EHAM)

Arrival

Time 2026-04-20 02:00
Airport Dubai International Airport (OMDB)
Time Latitude Longitude Altitude Speed Heading
2026-04-20 01:10 36.34478 40.77031 37366 ft 498 kts 139°
2026-04-20 01:11 36.29758 40.83349 37371 ft 500 kts 139°
2026-04-20 01:11 36.08579 41.11564 37353 ft 503 kts 140°
2026-04-20 01:12 35.70278 41.61962 37342 ft 504 kts 141°
2026-04-20 01:12 35.31637 42.12034 37721 ft 512 kts 142°
2026-04-20 01:13 35.11649 42.37664 38033 ft 527 kts 142°
2026-04-20 01:13 34.91418 42.63408 37795 ft 522 kts 143°
2026-04-20 01:13 34.71883 42.88091 37635 ft 503 kts 144°
2026-04-20 01:13 34.52715 43.12097 37708 ft 490 kts 144°
2026-04-20 01:14 34.33394 43.36115 37895 ft 496 kts 145°
2026-04-20 01:14 34.13885 43.60205 37978 ft 508 kts 145°
2026-04-20 01:14 33.94164 43.84422 37848 ft 515 kts 145°
2026-04-20 01:14 33.74046 44.08948 37752 ft 511 kts 146°
2026-04-20 01:15 33.34685 44.56400 37834 ft 498 kts 146°
2026-04-20 01:15 33.14907 44.79989 37967 ft 505 kts 146°
2026-04-20 01:15 32.94736 45.03906 37950 ft 515 kts 146°
2026-04-20 01:16 32.74308 45.27969 37809 ft 516 kts 146°
2026-04-20 01:16 32.54050 45.51667 37782 ft 507 kts 147°
2026-04-20 01:16 32.14344 45.97614 37931 ft 506 kts 147°
2026-04-20 01:17 31.71522 46.41911 37976 ft 523 kts 150°
2026-04-20 01:17 31.27865 46.86424 37731 ft 511 kts 149°
2026-04-20 01:18 30.85450 47.29117 37880 ft 510 kts 149°
2026-04-20 01:18 30.63553 47.50937 37998 ft 526 kts 149°
2026-04-20 01:18 30.40988 47.73328 37895 ft 536 kts 149°
2026-04-20 01:19 30.18343 47.95634 37748 ft 531 kts 149°
2026-04-20 01:19 29.96551 48.16975 37775 ft 520 kts 149°
2026-04-20 01:19 29.74990 48.39311 37738 ft 543 kts 137°
2026-04-20 01:19 29.57021 48.67082 37882 ft 534 kts 135°
2026-04-20 01:20 29.20101 49.20182 37991 ft 536 kts 136°
2026-04-20 01:20 28.82279 49.74106 37890 ft 541 kts 135°
2026-04-20 01:21 28.63681 50.00400 37760 ft 526 kts 134°
2026-04-20 01:21 28.45520 50.25858 37811 ft 516 kts 134°
2026-04-20 01:21 28.27330 50.51244 37945 ft 521 kts 133°
2026-04-20 01:21 28.08746 50.77040 37946 ft 536 kts 133°
2026-04-20 01:22 27.89565 51.03492 37975 ft 551 kts 133°
2026-04-20 01:22 27.70168 51.30085 37863 ft 556 kts 134°
2026-04-20 01:22 27.50561 51.56806 37728 ft 551 kts 134°
2026-04-20 01:22 27.31053 51.83181 37760 ft 546 kts 134°
2026-04-20 01:23 26.91916 52.35655 37900 ft 555 kts 133°
2026-04-20 01:23 26.76685 52.55933 37795 ft 566 kts 133°
2026-04-20 01:24 26.56451 52.82712 37838 ft 557 kts 133°
2026-04-20 01:24 26.36508 53.08944 37833 ft 555 kts 133°
2026-04-20 01:25 26.25732 53.23059 37851 ft 564 kts 133°
2026-04-20 01:25 26.20679 53.29765 37694 ft 566 kts 128°
2026-04-20 01:26 26.18430 53.33346 37375 ft 561 kts 123°
2026-04-20 01:26 26.16456 53.37053 37082 ft 553 kts 118°
2026-04-20 01:26 26.14820 53.40884 36790 ft 544 kts 113°
2026-04-20 01:26 26.13313 53.44709 36505 ft 533 kts 113°
2026-04-20 01:27 26.11855 53.48417 36162 ft 514 kts 113°
2026-04-20 01:27 26.10445 53.51962 35867 ft 502 kts 114°
2026-04-20 01:27 26.09029 53.55479 35593 ft 495 kts 114°
2026-04-20 01:27 26.07617 53.58952 35328 ft 490 kts 114°
2026-04-20 01:28 26.06217 53.62384 35060 ft 485 kts 115°
2026-04-20 01:28 26.04825 53.65791 34709 ft 483 kts 115°
2026-04-20 01:28 26.03442 53.69175 34339 ft 479 kts 115°
2026-04-20 01:28 26.02070 53.72535 33989 ft 474 kts 115°
2026-04-20 01:29 26.00718 53.75845 33582 ft 465 kts 114°
2026-04-20 01:29 25.99422 53.79094 33136 ft 456 kts 114°
2026-04-20 01:29 25.98165 53.82309 32588 ft 451 kts 114°
2026-04-20 01:29 25.96922 53.85503 31846 ft 450 kts 114°
2026-04-20 01:30 25.95683 53.88677 31108 ft 444 kts 114°
2026-04-20 01:30 25.94461 53.91796 30393 ft 436 kts 114°
2026-04-20 01:30 25.93256 53.94859 29661 ft 429 kts 115°
2026-04-20 01:30 25.92070 53.97870 28854 ft 422 kts 115°
2026-04-20 01:31 25.90862 54.00808 28068 ft 414 kts 117°
2026-04-20 01:31 25.89597 54.03648 27298 ft 407 kts 117°
2026-04-20 01:31 25.88328 54.06435 26566 ft 401 kts 118°
2026-04-20 01:31 25.87084 54.09180 25797 ft 397 kts 117°
2026-04-20 01:32 25.85853 54.11918 24942 ft 395 kts 117°
2026-04-20 01:32 25.84637 54.14645 24136 ft 393 kts 117°
2026-04-20 01:32 25.83432 54.17354 23338 ft 390 kts 117°
2026-04-20 01:32 25.82238 54.20048 22406 ft 388 kts 116°
2026-04-20 01:33 25.81223 54.22804 21511 ft 385 kts 109°
2026-04-20 01:33 25.80647 54.24668 20925 ft 384 kts 109°
2026-04-20 01:33 25.79800 54.27462 20076 ft 381 kts 108°
2026-04-20 01:33 25.78688 54.31136 18969 ft 377 kts 108°
2026-04-20 01:34 25.77851 54.33881 18172 ft 374 kts 107°
2026-04-20 01:34 25.77287 54.35723 17556 ft 372 kts 107°
2026-04-20 01:34 25.76185 54.39304 16372 ft 368 kts 107°
2026-04-20 01:34 25.75359 54.41975 15497 ft 365 kts 107°
2026-04-20 01:35 25.74536 54.44636 14489 ft 367 kts 107°
2026-04-20 01:35 25.73970 54.46463 13770 ft 374 kts 107°
2026-04-20 01:35 25.73115 54.49227 12654 ft 383 kts 107°
2026-04-20 01:35 25.72247 54.52023 11708 ft 384 kts 107°
2026-04-20 01:36 25.71377 54.54826 10778 ft 385 kts 107°
2026-04-20 01:36 25.70503 54.57636 9898 ft 385 kts 107°
2026-04-20 01:36 25.69648 54.60380 9404 ft 374 kts 108°
2026-04-20 01:36 25.68807 54.63023 9253 ft 353 kts 108°
2026-04-20 01:37 25.68003 54.65523 9130 ft 336 kts 108°
2026-04-20 01:37 25.67236 54.67905 9017 ft 320 kts 108°
2026-04-20 01:37 25.66505 54.70179 8918 ft 307 kts 108°
2026-04-20 01:37 25.65804 54.72363 8807 ft 295 kts 108°
2026-04-20 01:38 25.65127 54.74475 8662 ft 286 kts 107°
2026-04-20 01:38 25.64469 54.76529 8469 ft 280 kts 108°
2026-04-20 01:38 25.63819 54.78558 8211 ft 278 kts 108°
2026-04-20 01:38 25.63171 54.80577 7914 ft 283 kts 108°
2026-04-20 01:39 25.62496 54.82683 7931 ft 297 kts 108°
2026-04-20 01:39 25.61793 54.84869 7955 ft 304 kts 108°
2026-04-20 01:39 25.60906 54.87009 7928 ft 310 kts 124°
2026-04-20 01:39 25.59530 54.88776 7919 ft 296 kts 132°
2026-04-20 01:40 25.58146 54.90401 7898 ft 284 kts 132°
2026-04-20 01:40 25.56796 54.91993 7911 ft 284 kts 132°
2026-04-20 01:40 25.55454 54.93586 7908 ft 282 kts 132°
2026-04-20 01:40 25.54129 54.95168 7906 ft 280 kts 132°
2026-04-20 01:41 25.52828 54.96728 7905 ft 278 kts 131°
2026-04-20 01:41 25.51517 54.98307 7904 ft 278 kts 131°
2026-04-20 01:41 25.50213 54.99880 7903 ft 278 kts 131°
2026-04-20 01:41 25.48906 55.01460 7910 ft 278 kts 131°
2026-04-20 01:42 25.47601 55.03038 7910 ft 279 kts 131°
2026-04-20 01:42 25.46290 55.04625 7916 ft 279 kts 131°
2026-04-20 01:42 25.44981 55.06210 7916 ft 280 kts 131°
2026-04-20 01:42 25.43666 55.07802 7916 ft 280 kts 131°
2026-04-20 01:43 25.42348 55.09397 7917 ft 281 kts 131°
2026-04-20 01:43 25.41032 55.10990 7917 ft 281 kts 131°
2026-04-20 01:43 25.39711 55.12588 7917 ft 281 kts 131°
2026-04-20 01:43 25.38389 55.14188 7919 ft 281 kts 131°
2026-04-20 01:44 25.37069 55.15784 7919 ft 281 kts 131°
2026-04-20 01:44 25.35749 55.17380 7917 ft 281 kts 131°
2026-04-20 01:44 25.34429 55.18975 7917 ft 281 kts 131°
2026-04-20 01:44 25.33113 55.20566 7918 ft 281 kts 131°
2026-04-20 01:45 25.31796 55.22156 7918 ft 280 kts 131°
2026-04-20 01:45 25.30481 55.23743 7920 ft 280 kts 131°
2026-04-20 01:45 25.29165 55.25332 7918 ft 280 kts 131°
2026-04-20 01:45 25.27855 55.26913 7927 ft 279 kts 131°
2026-04-20 01:46 25.26543 55.28497 7928 ft 279 kts 131°
2026-04-20 01:46 25.25233 55.30075 7931 ft 279 kts 131°
2026-04-20 01:46 25.23937 55.31636 7933 ft 279 kts 131°
2026-04-20 01:46 25.22623 55.33221 7927 ft 279 kts 131°
2026-04-20 01:47 25.21312 55.34800 7929 ft 279 kts 131°
2026-04-20 01:47 25.20015 55.36361 7913 ft 269 kts 131°
2026-04-20 01:47 25.18782 55.37844 7897 ft 258 kts 131°
2026-04-20 01:47 25.17575 55.39297 7968 ft 257 kts 131°
2026-04-20 01:48 25.16365 55.40752 7945 ft 257 kts 131°
2026-04-20 01:48 25.15166 55.42197 7941 ft 255 kts 131°
2026-04-20 01:48 25.13969 55.43636 7935 ft 253 kts 131°
2026-04-20 01:48 25.12783 55.45059 7933 ft 252 kts 131°
2026-04-20 01:49 25.11597 55.46483 7933 ft 251 kts 130°
2026-04-20 01:49 25.10524 55.47988 7927 ft 249 kts 120°
2026-04-20 01:49 25.09629 55.49623 7934 ft 250 kts 118°
2026-04-20 01:49 25.08741 55.51279 7937 ft 251 kts 118°
2026-04-20 01:50 25.07835 55.52940 7945 ft 253 kts 119°
2026-04-20 01:50 25.06923 55.54604 7949 ft 254 kts 119°
2026-04-20 01:50 25.05998 55.56270 7952 ft 255 kts 120°
2026-04-20 01:50 25.05075 55.57921 7893 ft 259 kts 119°
2026-04-20 01:51 25.04129 55.59613 7578 ft 256 kts 119°
2026-04-20 01:51 25.03215 55.61259 7287 ft 247 kts 119°
2026-04-20 01:51 25.02335 55.62855 7031 ft 242 kts 116°
2026-04-20 01:51 25.01853 55.64589 6758 ft 236 kts 86°
2026-04-20 01:52 25.02273 55.66275 6517 ft 228 kts 56°
2026-04-20 01:52 25.03315 55.67559 6286 ft 225 kts 36°
2026-04-20 01:52 25.04637 55.68450 6130 ft 222 kts 19°
2026-04-20 01:52 25.06168 55.68587 5891 ft 227 kts 346°
2026-04-20 01:53 25.07522 55.67731 5635 ft 226 kts 315°
2026-04-20 01:53 25.08499 55.66435 5408 ft 213 kts 308°
2026-04-20 01:53 25.09310 55.65176 5112 ft 188 kts 305°
2026-04-20 01:53 25.09989 55.64016 4864 ft 173 kts 304°
2026-04-20 01:54 25.10618 55.62907 4673 ft 170 kts 303°
2026-04-20 01:54 25.11238 55.61799 4453 ft 170 kts 303°
2026-04-20 01:54 25.11848 55.60703 4247 ft 170 kts 303°
2026-04-20 01:54 25.12449 55.59620 4037 ft 169 kts 303°
2026-04-20 01:55 25.13080 55.58480 3813 ft 168 kts 302°
2026-04-20 01:55 25.13690 55.57377 3596 ft 169 kts 302°
2026-04-20 01:55 25.14306 55.56265 3384 ft 169 kts 302°
2026-04-20 01:55 25.14915 55.55166 3174 ft 167 kts 302°
2026-04-20 01:56 25.15520 55.54074 2957 ft 166 kts 302°
2026-04-20 01:56 25.16125 55.52981 2771 ft 168 kts 302°
2026-04-20 01:56 25.16726 55.51890 2555 ft 168 kts 302°
2026-04-20 01:56 25.17332 55.50796 2273 ft 170 kts 301°
2026-04-20 01:57 25.17947 55.49657 2102 ft 173 kts 301°
2026-04-20 01:57 25.18560 55.48538 1909 ft 169 kts 301°
2026-04-20 01:57 25.19174 55.47420 1591 ft 174 kts 301°
2026-04-20 01:57 25.19819 55.46266 1384 ft 177 kts 301°
2026-04-20 01:58 25.20464 55.45116 1231 ft 175 kts 302°
2026-04-20 01:58 25.21099 55.43974 1048 ft 174 kts 301°
2026-04-20 01:58 25.21716 55.42836 821 ft 172 kts 301°
2026-04-20 01:58 25.22346 55.41708 592 ft 172 kts 301°
2026-04-20 01:59 25.22977 55.40579 357 ft 173 kts 301°
2026-04-20 01:59 25.23604 55.39459 141 ft 170 kts 302°
2026-04-20 01:59 25.24205 55.38378 36 ft 156 kts 301°
2026-04-20 01:59 25.24706 55.37478 17 ft 116 kts 301°
2026-04-20 02:00 25.25047 55.36869 13 ft 72 kts 301°
2026-04-20 02:00 25.25182 55.36598 7 ft 32 kts 291°
2026-04-20 02:00 25.25163 55.36474 5 ft 11 kts 214°
2026-04-20 02:00 25.25082 55.36421 13 ft 13 kts 211°
2026-04-20 02:01 25.25025 55.36356 30 ft 11 kts 237°
2026-04-20 02:01 25.24997 55.36301 31 ft 4 kts 241°
2026-04-20 02:01 25.24993 55.36284 28 ft 3 kts 260°
2026-04-20 02:01 25.24998 55.36242 28 ft 6 kts 287°
2026-04-20 02:02 25.25002 55.36197 27 ft 5 kts 261°
2026-04-20 02:02 25.24990 55.36165 28 ft 5 kts 240°
2026-04-20 02:02 25.24989 55.36164 28 ft 0 kts 239°
2026-04-20 02:02 25.25002 55.36185 28 ft 0 kts 227°
2026-04-20 02:03 25.24976 55.36162 28 ft 5 kts 214°
2026-04-20 02:03 25.24960 55.36150 28 ft 0 kts 214°